This is the latest recevied weather packets stored in our database for station/object 7L2IWN-13. If no packets are shown the sender has not sent any weather packets the latest 10 day(s).
| Time | Temp. | Humidity | Pressure | Rain* | Wind** | Luminosity | Snow |
|---|---|---|---|---|---|---|---|
| 1777592061 | 9.44° C | 99% | 1006.9 hPa | 4.32 mm | - | - | - |
| 1777591343 | 9.44° C | 99% | 1007.6 hPa | 4.06 mm | - | - | - |
| 1777590622 | 9.44° C | 99% | 1007.9 hPa | 4.83 mm | - | - | - |
| 1777589903 | 9.44° C | 99% | 1008.3 hPa | 3.81 mm | - | - | - |
| 1777588462 | 9.44° C | 99% | 1008.4 hPa | 5.84 mm | - | - | - |
| 1777587741 | 9.44° C | 99% | 1008.7 hPa | 7.37 mm | - | - | - |
| 1777587024 | 8.89° C | 99% | 1008.8 hPa | 7.37 mm | - | - | - |
| 1777586302 | 8.89° C | 99% | 1009.4 hPa | 8.38 mm | - | - | - |
| 1777585582 | 8.89° C | 99% | 1009.9 hPa | 6.86 mm | - | - | - |
| 1777584862 | 8.89° C | 99% | 1010.5 hPa | 5.33 mm | - | - | - |
| 1777584141 | 8.89° C | 99% | 1010.3 hPa | 3.3 mm | - | - | - |
| 1777583421 | 8.89° C | 99% | 1010.3 hPa | 2.03 mm | - | - | - |
| 1777582701 | 8.89° C | 99% | 1010.5 hPa | 0.51 mm | - | - | - |
| 1777581980 | 8.89° C | 99% | 1010.8 hPa | 0.76 mm | - | - | - |
| 1777581262 | 8.89° C | 99% | 1010.8 hPa | 1.27 mm | - | - | - |
| 1777580542 | 8.89° C | 99% | 1010.9 hPa | 3.05 mm | - | - | - |
| 1777579822 | 8.89° C | 99% | 1010.9 hPa | 3.05 mm | - | - | - |
| 1777579101 | 8.89° C | 99% | 1011.1 hPa | 3.3 mm | - | - | - |
| 1777578383 | 8.89° C | 99% | 1011.4 hPa | 4.57 mm | - | - | - |
| 1777577661 | 8.89° C | 99% | 1011.9 hPa | 5.33 mm | - | - | - |
| 1777576941 | 8.89° C | 99% | 1012.5 hPa | 4.57 mm | - | - | - |
| 1777576221 | 8.89° C | 99% | 1012.2 hPa | 5.33 mm | - | - | - |
| 1777575502 | 8.89° C | 99% | 1013 hPa | 5.84 mm | - | - | - |
| 1777574782 | 8.89° C | 99% | 1013.6 hPa | 5.33 mm | - | - | - |
| 1777574062 | 8.89° C | 99% | 1013.7 hPa | 4.57 mm | - | - | - |
* Rain latest hour (hover to see other rain measurements)
** Current wind speed in m/s (hover to see current wind gust speed)